Theta_e
320 323 325 325 324 322 322 323 324 325 325 325 325 337 345 344 347 345 344 346 348 349 347 347 346 346 345 343 343 342 332 333
318 321 324 323 324 322 322 325 326 326 326 328 327 326 343 345 344 348 346 348 349 349 349 348 347 347 346 345 344 344 341 330
315 318 320 321 320 322 321 324 326 325 325 326 330 331 343 344 344 349 346 344 344 341 349 350 348 347 348 347 346 346 345 341
313 315 316 316 319 318 318 321 324 328 329 327 328 331 337 344 343 348 342 347 344 335 337 349 350 348 348 348 348 347 346 346
313 313 316 316 316 314 313 312 315 318 325 326 326 327 330 333 337 346 346 347 342 336 338 349 350 350 349 349 350 350 349 348
314 314 314 315 315 315 314 311 313 316 319 320 325 326 326 330 328 336 346 344 339 341 342 348 347 351 350 351 351 352 352 351
312 313 313 314 314 315 314 314 314 314 317 323 322 322 324 324 323 324 327 344 343 342 340 341 342 349 352 352 352 352 354 353
312 313 313 314 315 316 316 315 315 315 315 315 316 317 317 316 317 318 319 321 322 327 337 341 342 347 352 353 353 352 354 355
314 314 314 315 314 315 315 316 314 314 314 315 315 317 316 317 318 318 319 318 328 338 345 343 344 340 340 352 354 353 353 355
314 314 316 315 314 315 316 316 315 315 314 315 316 316 316 316 317 320 320 327 327 344 348 347 342 346 342 349 354 354 354 354
312 314 313 313 313 313 314 314 315 315 315 316 317 316 315 317 320 320 320 319 333 339 346 348 340 343 347 351 350 354 354 353
315 314 314 311 312 312 313 312 313 315 315 315 314 316 315 317 315 315 315 315 332 334 327 327 345 349 341 339 339 353 356 354
316 318 316 312 312 314 315 314 313 313 314 313 312 313 313 314 313 312 313 314 328 332 326 326 338 350 349 340 342 347 353 357
314 317 315 310 311 314 311 309 309 310 311 311 311 311 311 313 312 310 310 313 332 326 328 332 341 345 356 357 350 349 359 358
309 311 309 309 308 307 307 307 307 308 309 310 309 309 310 311 311 311 328 325 331 323 327 333 332 334 347 349 351 355 348 358
306 309 308 307 306 306 304 305 305 307 307 308 308 309 309 311 315 324 331 332 331 327 331 333 333 340 339 333 345 354 356 350
307 307 306 306 305 304 303 304 305 307 309 308 309 311 313 314 319 325 327 329 332 334 335 336 340 343 339 333 331 346 356 356
307 306 306 305 304 303 302 303 304 307 311 311 314 314 315 316 321 325 326 328 330 333 335 337 340 343 346 345 338 340 353 358
307 307 306 305 304 304 303 302 303 304 307 310 311 312 316 318 322 322 322 323 326 330 332 334 337 341 345 349 351 354 354 351
Wind_Speed
12 14 8 6 5 9 5 12 4 6 8 10 12 11 32 31 29 27 28 21 14 37 50 50 47 50 52 50 46 43 44 42
13 5 8 8 4 5 4 6 6 6 9 5 6 18 24 22 34 31 37 30 21 20 27 45 49 46 49 49 48 43 43 45
9 4 3 1 2 1 0 1 4 6 8 8 3 18 23 30 42 41 42 42 33 13 28 31 46 45 48 51 49 47 44 43
10 18 15 11 3 0 3 7 3 3 8 11 12 18 6 17 36 46 47 46 42 27 38 38 40 49 51 51 52 50 47 45
10 6 5 6 6 6 4 4 10 5 8 4 15 17 23 21 26 27 34 45 48 29 43 54 43 46 49 52 52 50 49 47
6 7 9 12 19 17 5 2 5 6 8 9 11 12 19 24 35 29 18 30 37 38 48 56 50 42 47 49 49 48 49 50
12 13 14 16 18 19 13 9 4 11 14 4 10 11 20 23 24 23 23 15 12 17 31 32 53 46 39 49 52 49 48 51
13 12 17 17 17 20 19 16 15 13 16 6 20 25 23 27 27 21 22 16 18 27 32 47 47 52 38 40 51 54 51 52
7 8 13 12 12 16 18 18 11 12 10 10 9 14 18 25 28 32 33 32 32 34 20 43 41 24 40 47 47 53 54 52
4 5 3 9 8 14 18 17 18 19 13 11 10 22 27 23 26 30 34 40 26 23 5 27 33 24 28 30 38 52 57 56
3 4 9 14 12 10 7 10 10 8 12 27 23 21 17 18 21 28 30 38 36 23 14 19 4 18 26 27 20 34 44 56
2 4 6 6 6 19 5 9 12 17 14 21 25 7 5 30 36 37 39 40 39 37 37 29 18 7 11 43 55 41 40 54
7 6 6 12 25 15 3 5 29 26 17 23 9 11 26 29 42 42 44 42 35 33 35 40 28 17 10 12 34 39 48 44
5 3 5 30 17 6 14 33 24 32 29 29 31 38 34 27 40 45 45 40 35 31 36 27 22 22 15 23 26 24 24 42
3 5 21 16 15 24 21 27 33 30 33 31 34 46 47 42 43 41 43 35 35 32 41 26 26 25 27 27 19 12 23 23
5 3 15 24 20 20 25 29 36 40 36 30 30 38 48 45 35 31 29 25 26 36 34 30 26 25 26 27 28 25 23 30
5 13 22 9 28 25 27 25 29 37 34 37 31 33 34 34 32 25 25 19 19 22 25 23 25 23 25 28 28 30 31 28
3 15 14 19 26 25 25 29 28 37 19 22 18 18 25 35 23 21 16 17 19 17 15 19 20 21 22 23 26 30 33 31
6 15 17 17 20 23 22 23 20 22 20 18 16 17 14 22 19 17 11 8 8 9 14 14 16 14 22 21 24 25 31 35
Wind_Direction
304 234 183 274 254 217 255 280 311 266 275 280 251 174 188 185 185 193 193 187 171 192 195 199 207 212 213 213 213 214 210 206
333 332 204 191 264 17 251 246 258 276 292 255 257 234 179 178 185 163 164 173 166 184 219 205 206 215 213 219 217 218 217 211
341 322 241 347 332 68 169 244 242 249 273 255 152 31 193 185 186 171 171 186 169 231 241 215 209 210 217 218 220 219 220 220
286 306 317 299 266 99 155 280 240 213 276 342 23 29 338 195 190 181 179 168 179 184 233 220 210 208 215 219 221 224 225 222
326 327 355 347 307 263 251 257 265 231 274 93 35 33 43 37 26 192 171 168 179 175 195 205 207 209 212 213 222 224 225 226
269 329 325 321 322 325 331 235 282 262 281 293 22 16 19 49 57 65 162 182 195 196 196 211 212 204 213 212 212 222 224 228
293 303 305 300 302 304 308 296 294 288 286 61 39 17 10 19 35 53 66 184 247 256 264 265 220 205 209 213 211 212 222 226
284 295 291 288 292 294 296 290 290 297 282 24 5 357 5 351 358 15 12 5 328 308 266 236 212 207 217 207 215 210 217 224
283 325 319 296 259 270 276 285 290 289 296 330 355 348 349 355 359 354 348 343 347 358 239 211 196 228 230 213 220 211 212 221
279 352 257 258 300 291 289 293 297 316 304 336 5 335 327 337 350 356 345 343 341 15 45 223 231 250 240 225 216 212 214 217
192 209 284 298 280 292 346 305 319 314 354 329 13 343 327 346 343 336 327 329 332 331 338 2 126 218 237 230 229 212 219 217
241 223 228 283 265 288 9 273 338 23 7 332 350 334 320 326 319 316 310 317 326 319 310 325 335 311 147 210 248 216 211 223
234 244 272 11 342 332 219 314 335 341 347 322 317 296 311 321 310 311 308 313 307 307 300 303 311 310 266 197 204 235 233 227
338 256 248 5 355 3 331 316 323 316 315 312 308 307 313 320 313 307 300 297 287 285 288 295 312 308 302 230 229 234 230 224
271 282 315 337 324 313 320 313 313 309 297 294 298 299 305 309 309 301 295 267 267 273 276 282 283 291 304 314 294 260 244 234
311 269 309 318 319 320 322 311 308 306 295 291 287 287 290 292 291 291 266 253 246 252 268 278 276 271 279 291 297 271 262 242
255 287 314 307 315 318 316 311 317 322 284 280 280 282 278 283 292 243 251 259 260 255 265 275 275 262 263 272 280 277 259 255
265 307 311 305 321 330 324 323 319 341 314 293 290 286 275 263 248 216 227 229 243 252 261 264 269 268 263 260 265 268 258 250
252 306 299 316 326 340 325 326 307 340 351 331 354 344 312 252 202 174 168 184 208 237 252 257 258 263 259 257 259 254 252 246